| time (UTC) | temp F | wind direction | speed MPH | gust MPH | rain 1hr in | rain 24hr in | rain mn in | humidity % | barometer mb |
| 20260508165343 | 69 | 238 | 2.0 | 7.0 | 0.00 | 0.00 | 0.00 | 61 | 1018.4 |
| 20260508164837 | 68 | 238 | 1.0 | 7.0 | 0.00 | 0.00 | 0.00 | 61 | 1018.5 |
| 20260508164336 | 68 | 94 | 3.0 | 7.0 | 0.00 | 0.00 | 0.00 | 63 | 1018.6 |
| 20260508163840 | 67 | 207 | 3.0 | 6.0 | 0.00 | 0.00 | 0.00 | 60 | 1018.5 |
| 20260508163339 | 67 | 310 | 2.0 | 6.0 | 0.00 | 0.00 | 0.00 | 65 | 1018.6 |
| 20260508162836 | 67 | 72 | 0.0 | 6.0 | 0.00 | 0.00 | 0.00 | 63 | 1018.9 |
| 20260508162337 | 66 | 248 | 5.0 | 5.0 | 0.00 | 0.00 | 0.00 | 65 | 1018.9 |
| 20260508161842 | 67 | 248 | 2.0 | 6.0 | 0.00 | 0.00 | 0.00 | 62 | 1018.9 |
| 20260508161339 | 67 | 181 | 0.0 | 8.0 | 0.00 | 0.00 | 0.00 | 63 | 1019.1 |
| 20260508160838 | 67 | 0 | 0.0 | 8.0 | 0.00 | 0.00 | 0.00 | 63 | 1019.2 |
| 20260508160340 | 67 | 84 | 2.0 | 8.0 | 0.00 | 0.00 | 0.00 | 62 | 1019.1 |
| 20260508155839 | 67 | 63 | 4.0 | 7.0 | 0.00 | 0.00 | 0.00 | 62 | 1019.2 |
| 20260508155342 | 66 | 225 | 0.0 | 7.0 | 0.00 | 0.00 | 0.00 | 63 | 1019.3 |
| 20260508154840 | 66 | 249 | 4.0 | 7.0 | 0.00 | 0.00 | 0.00 | 64 | 1019.4 |
| 20260508154341 | 66 | 269 | 3.0 | 6.0 | 0.00 | 0.00 | 0.00 | 63 | 1019.5 |
| 20260508153840 | 65 | 238 | 1.0 | 7.0 | 0.00 | 0.00 | 0.00 | 64 | 1019.6 |
| 20260508153337 | 65 | 255 | 1.0 | 7.0 | 0.00 | 0.00 | 0.00 | 63 | 1019.5 |
| 20260508152841 | 65 | 203 | 1.0 | 4.0 | 0.00 | 0.00 | 0.00 | 66 | 1019.5 |
| 20260508152340 | 64 | 232 | 2.0 | 5.0 | 0.00 | 0.00 | 0.00 | 66 | 1019.4 |
| 20260508151838 | 64 | 244 | 3.0 | 5.0 | 0.00 | 0.00 | 0.00 | 65 | 1019.6 |
| 20260508151339 | 64 | 255 | 0.0 | 5.0 | 0.00 | 0.00 | 0.00 | 65 | 1019.7 |
| 20260508150838 | 64 | 295 | 2.0 | 4.0 | 0.00 | 0.00 | 0.00 | 68 | 1019.5 |
| 20260508150338 | 64 | 248 | 3.0 | 5.0 | 0.00 | 0.00 | 0.00 | 68 | 1019.5 |
| 20260508145840 | 64 | 224 | 1.0 | 5.0 | 0.00 | 0.00 | 0.00 | 66 | 1019.7 |
| 20260508145336 | 64 | 163 | 1.0 | 5.0 | 0.00 | 0.00 | 0.00 | 66 | 1019.8 |
| 20260508144840 | 64 | 226 | 1.0 | 5.0 | 0.00 | 0.00 | 0.00 | 66 | 1019.7 |
| 20260508144338 | 63 | 292 | 0.0 | 5.0 | 0.00 | 0.00 | 0.00 | 69 | 1019.5 |
| 20260508143842 | 63 | 252 | 3.0 | 6.0 | 0.00 | 0.00 | 0.00 | 68 | 1019.6 |
| 20260508143336 | 62 | 250 | 1.0 | 8.0 | 0.00 | 0.00 | 0.00 | 70 | 1019.6 |
| 20260508142840 | 62 | 72 | 3.0 | 8.0 | 0.00 | 0.00 | 0.00 | 70 | 1019.4 |
| 20260508142338 | 62 | 243 | 1.0 | 5.0 | 0.00 | 0.00 | 0.00 | 72 | 1019.6 |
| 20260508141842 | 61 | 229 | 2.0 | 5.0 | 0.00 | 0.00 | 0.00 | 72 | 1019.4 |
| 20260508141338 | 61 | 247 | 4.0 | 5.0 | 0.00 | 0.00 | 0.00 | 73 | 1019.5 |
| 20260508140842 | 61 | 53 | 2.0 | 5.0 | 0.00 | 0.00 | 0.00 | 74 | 1019.5 |
| 20260508140338 | 60 | 236 | 2.0 | 6.0 | 0.00 | 0.00 | 0.00 | 74 | 1019.5 |
| 20260508135841 | 60 | 257 | 3.0 | 7.0 | 0.00 | 0.00 | 0.00 | 74 | 1019.6 |
| 20260508135339 | 60 | 278 | 1.0 | 7.0 | 0.00 | 0.00 | 0.00 | 75 | 1019.6 |
| 20260508134839 | 60 | 269 | 4.0 | 5.0 | 0.00 | 0.00 | 0.00 | 77 | 1019.6 |
| 20260508134335 | 60 | 231 | 2.0 | 2.0 | 0.00 | 0.00 | 0.00 | 80 | 1019.7 |
| 20260508133839 | 59 | 0 | 0.0 | 3.0 | 0.00 | 0.00 | 0.00 | 80 | 1019.7 |
| 20260508133342 | 59 | 0 | 0.0 | 5.0 | 0.00 | 0.00 | 0.00 | 80 | 1019.9 |
| 20260508132839 | 59 | 0 | 0.0 | 5.0 | 0.00 | 0.00 | 0.00 | 80 | 1019.8 |
| 20260508132336 | 59 | 0 | 0.0 | 2.0 | 0.00 | 0.00 | 0.00 | 82 | 1019.7 |
| 20260508131838 | 59 | 0 | 0.0 | 1.0 | 0.00 | 0.00 | 0.00 | 82 | 1019.7 |
| 20260508131340 | 58 | 0 | 0.0 | 1.0 | 0.00 | 0.00 | 0.00 | 83 | 1019.6 |
| 20260508130839 | 58 | 0 | 0.0 | 1.0 | 0.00 | 0.00 | 0.00 | 83 | 1019.5 |
| 20260508130343 | 58 | 0 | 0.0 | 1.0 | 0.00 | 0.00 | 0.00 | 83 | 1019.5 |
| 20260508125838 | 58 | 0 | 0.0 | 1.0 | 0.00 | 0.00 | 0.00 | 84 | 1019.4 |
| 20260508125339 | 58 | 234 | 0.0 | 1.0 | 0.00 | 0.00 | 0.00 | 82 | 1019.3 |
| 20260508124844 | 58 | 0 | 0.0 | 1.0 | 0.00 | 0.00 | 0.00 | 83 | 1019.6 |
| 20260508124338 | 58 | 0 | 0.0 | 1.0 | 0.00 | 0.00 | 0.00 | 83 | 1019.4 |
| 20260508123836 | 58 | 235 | 0.0 | 1.0 | 0.00 | 0.00 | 0.00 | 82 | 1019.4 |
| 20260508123342 | 58 | 0 | 0.0 | 1.0 | 0.00 | 0.00 | 0.00 | 82 | 1019.3 |
| 20260508122842 | 57 | 0 | 0.0 | 2.0 | 0.00 | 0.00 | 0.00 | 82 | 1019.3 |
| 20260508122342 | 58 | 0 | 0.0 | 2.0 | 0.00 | 0.00 | 0.00 | 81 | 1019.3 |
| 20260508121840 | 58 | 213 | 1.0 | 2.0 | 0.00 | 0.00 | 0.00 | 82 | 1019.2 |
| 20260508121341 | 57 | 212 | 1.0 | 1.0 | 0.00 | 0.00 | 0.00 | 82 | 1019.2 |
| 20260508120837 | 57 | 0 | 0.0 | 1.0 | 0.00 | 0.00 | 0.00 | 81 | 1019.0 |
| 20260508120345 | 57 | 0 | 0.0 | 1.0 | 0.00 | 0.00 | 0.00 | 83 | 1019.0 |
| 20260508115843 | 57 | 0 | 0.0 | 0.0 | 0.00 | 0.00 | 0.00 | 84 | 1018.7 |
| 20260508115335 | 55 | 0 | 0.0 | 1.0 | 0.00 | 0.00 | 0.00 | 87 | 1018.8 |
| 20260508114838 | 54 | 0 | 0.0 | 1.0 | 0.00 | 0.00 | 0.00 | 88 | 1018.3 |
| 20260508114335 | 54 | 206 | 0.0 | 1.0 | 0.00 | 0.00 | 0.00 | 88 | 1018.3 |
| 20260508113837 | 54 | 0 | 0.0 | 0.0 | 0.00 | 0.00 | 0.00 | 90 | 1018.1 |
| 20260508113341 | 52 | 0 | 0.0 | 1.0 | 0.00 | 0.00 | 0.00 | 92 | 1018.0 |
| 20260508112842 | 51 | 0 | 0.0 | 1.0 | 0.00 | 0.00 | 0.00 | 92 | 1018.0 |
| 20260508112341 | 51 | 0 | 0.0 | 1.0 | 0.00 | 0.00 | 0.00 | 93 | 1017.9 |
| 20260508111839 | 50 | 0 | 0.0 | 1.0 | 0.00 | 0.00 | 0.00 | 94 | 1017.9 |
| 20260508111339 | 50 | 0 | 0.0 | 1.0 | 0.00 | 0.00 | 0.00 | 94 | 1017.7 |
| 20260508110842 | 50 | 0 | 0.0 | 1.0 | 0.00 | 0.00 | 0.00 | 94 | 1017.7 |
| 20260508110349 | 50 | 0 | 0.0 | 1.0 | 0.00 | 0.00 | 0.00 | 94 | 1017.5 |
| 20260508105848 | 50 | 0 | 0.0 | 1.0 | 0.00 | 0.00 | 0.00 | 94 | 1017.6 |
| 20260508105347 | 50 | 0 | 0.0 | 0.0 | 0.00 | 0.00 | 0.00 | 94 | 1017.5 |
| 20260508104846 | 49 | 0 | 0.0 | 0.0 | 0.00 | 0.00 | 0.00 | 94 | 1017.4 |
| 20260508104346 | 49 | 0 | 0.0 | 0.0 | 0.00 | 0.00 | 0.00 | 94 | 1017.3 |
| 20260508103848 | 50 | 0 | 0.0 | 0.0 | 0.00 | 0.00 | 0.00 | 93 | 1017.1 |
| 20260508103344 | 50 | 0 | 0.0 | 0.0 | 0.00 | 0.00 | 0.00 | 94 | 1017.1 |
| 20260508102848 | 50 | 0 | 0.0 | 0.0 | 0.00 | 0.00 | 0.00 | 94 | 1017.2 |
| 20260508102347 | 50 | 0 | 0.0 | 0.0 | 0.00 | 0.00 | 0.00 | 94 | 1016.9 |
| 20260508101842 | 50 | 0 | 0.0 | 0.0 | 0.00 | 0.00 | 0.00 | 94 | 1017.0 |
| 20260508101344 | 50 | 0 | 0.0 | 0.0 | 0.00 | 0.00 | 0.00 | 94 | 1016.8 |
| 20260508100842 | 50 | 0 | 0.0 | 0.0 | 0.00 | 0.00 | 0.00 | 93 | 1016.8 |
| 20260508100344 | 50 | 0 | 0.0 | 0.0 | 0.00 | 0.00 | 0.00 | 93 | 1016.8 |
| 20260508095844 | 50 | 0 | 0.0 | 0.0 | 0.00 | 0.00 | 0.00 | 94 | 1016.7 |
| 20260508095342 | 51 | 0 | 0.0 | 0.0 | 0.00 | 0.00 | 0.00 | 94 | 1016.6 |
| 20260508094844 | 51 | 0 | 0.0 | 0.0 | 0.00 | 0.00 | 0.00 | 94 | 1016.7 |
| 20260508094342 | 51 | 0 | 0.0 | 0.0 | 0.00 | 0.00 | 0.00 | 94 | 1016.6 |
| 20260508093843 | 51 | 0 | 0.0 | 0.0 | 0.00 | 0.00 | 0.00 | 94 | 1016.6 |
| 20260508093342 | 51 | 0 | 0.0 | 0.0 | 0.00 | 0.00 | 0.00 | 94 | 1016.4 |
| 20260508092843 | 51 | 0 | 0.0 | 0.0 | 0.00 | 0.00 | 0.00 | 94 | 1016.5 |
| 20260508092341 | 51 | 0 | 0.0 | 0.0 | 0.00 | 0.00 | 0.00 | 94 | 1016.4 |
| 20260508091840 | 51 | 0 | 0.0 | 0.0 | 0.00 | 0.00 | 0.00 | 94 | 1016.5 |
| 20260508091341 | 51 | 0 | 0.0 | 0.0 | 0.00 | 0.00 | 0.00 | 94 | 1016.3 |
| 20260508090840 | 51 | 0 | 0.0 | 0.0 | 0.00 | 0.00 | 0.00 | 94 | 1016.3 |
| 20260508090342 | 51 | 0 | 0.0 | 0.0 | 0.00 | 0.00 | 0.00 | 94 | 1016.3 |
| 20260508085843 | 51 | 0 | 0.0 | 0.0 | 0.00 | 0.00 | 0.00 | 94 | 1016.3 |
| 20260508085341 | 52 | 0 | 0.0 | 0.0 | 0.00 | 0.00 | 0.00 | 93 | 1016.4 |
| 20260508084840 | 52 | 0 | 0.0 | 0.0 | 0.00 | 0.00 | 0.00 | 94 | 1016.3 |
| 20260508084343 | 52 | 0 | 0.0 | 0.0 | 0.00 | 0.00 | 0.00 | 94 | 1016.3 |
| 20260508083840 | 52 | 0 | 0.0 | 0.0 | 0.00 | 0.00 | 0.00 | 94 | 1016.2 |
| 20260508083340 | 52 | 0 | 0.0 | 0.0 | 0.00 | 0.00 | 0.00 | 94 | 1016.1 |
| 20260508082840 | 52 | 0 | 0.0 | 0.0 | 0.00 | 0.00 | 0.00 | 94 | 1016.0 |
| 20260508082339 | 52 | 0 | 0.0 | 0.0 | 0.00 | 0.00 | 0.00 | 94 | 1016.0 |
| 20260508081841 | 52 | 0 | 0.0 | 0.0 | 0.00 | 0.00 | 0.00 | 94 | 1016.0 |
| 20260508081341 | 52 | 0 | 0.0 | 0.0 | 0.00 | 0.00 | 0.00 | 94 | 1015.7 |
| 20260508080838 | 52 | 0 | 0.0 | 0.0 | 0.00 | 0.00 | 0.00 | 93 | 1015.8 |
| 20260508080340 | 52 | 0 | 0.0 | 0.0 | 0.00 | 0.00 | 0.00 | 93 | 1015.8 |
| 20260508075839 | 53 | 0 | 0.0 | 0.0 | 0.00 | 0.00 | 0.00 | 93 | 1015.9 |
| 20260508075340 | 53 | 0 | 0.0 | 0.0 | 0.00 | 0.00 | 0.00 | 93 | 1016.3 |
| 20260508074839 | 53 | 0 | 0.0 | 0.0 | 0.00 | 0.00 | 0.00 | 93 | 1016.0 |
| 20260508074337 | 53 | 0 | 0.0 | 0.0 | 0.00 | 0.00 | 0.00 | 93 | 1016.0 |
| 20260508073837 | 53 | 0 | 0.0 | 0.0 | 0.00 | 0.00 | 0.00 | 93 | 1015.9 |
| 20260508073339 | 53 | 0 | 0.0 | 0.0 | 0.00 | 0.00 | 0.00 | 93 | 1015.9 |
| 20260508072837 | 53 | 0 | 0.0 | 0.0 | 0.00 | 0.00 | 0.00 | 93 | 1015.9 |
| 20260508072338 | 54 | 0 | 0.0 | 0.0 | 0.00 | 0.00 | 0.00 | 93 | 1016.0 |
| 20260508071837 | 54 | 0 | 0.0 | 0.0 | 0.00 | 0.00 | 0.00 | 93 | 1016.2 |
| 20260508071338 | 54 | 0 | 0.0 | 0.0 | 0.00 | 0.00 | 0.00 | 93 | 1016.2 |
| 20260508070838 | 54 | 0 | 0.0 | 0.0 | 0.00 | 0.00 | 0.00 | 93 | 1016.1 |
| 20260508070337 | 54 | 0 | 0.0 | 0.0 | 0.00 | 0.00 | 0.00 | 93 | 1016.1 |
| 20260508065838 | 54 | 0 | 0.0 | 0.0 | 0.00 | 0.00 | 0.00 | 93 | 1016.0 |
| 20260508065337 | 54 | 0 | 0.0 | 0.0 | 0.00 | 0.00 | 0.00 | 92 | 1016.0 |
| 20260508064836 | 54 | 0 | 0.0 | 0.0 | 0.00 | 0.00 | 0.00 | 93 | 1016.1 |
| 20260508064334 | 54 | 0 | 0.0 | 0.0 | 0.00 | 0.00 | 0.00 | 93 | 1016.2 |
| 20260508063834 | 54 | 0 | 0.0 | 0.0 | 0.00 | 0.00 | 0.00 | 92 | 1016.1 |
| 20260508063336 | 54 | 0 | 0.0 | 0.0 | 0.00 | 0.00 | 0.00 | 92 | 1016.2 |
| 20260508062835 | 54 | 0 | 0.0 | 0.0 | 0.00 | 0.00 | 0.00 | 92 | 1016.2 |
| 20260508062336 | 54 | 0 | 0.0 | 0.0 | 0.00 | 0.00 | 0.00 | 92 | 1016.3 |
| 20260508061735 | 54 | 0 | 0.0 | 0.0 | 0.00 | 0.00 | 0.00 | 92 | 1016.4 |
| 20260508061233 | 54 | 0 | 0.0 | 0.0 | 0.00 | 0.00 | 0.00 | 91 | 1016.3 |
| 20260508060735 | 54 | 0 | 0.0 | 0.0 | 0.00 | 0.00 | 0.00 | 91 | 1016.4 |
| 20260508060235 | 54 | 0 | 0.0 | 0.0 | 0.00 | 0.00 | 0.00 | 91 | 1016.3 |
| 20260508055834 | 55 | 0 | 0.0 | 0.0 | 0.00 | 0.00 | 0.00 | 91 | 1016.5 |
| 20260508055433 | 55 | 0 | 0.0 | 0.0 | 0.00 | 0.00 | 0.00 | 91 | 1016.4 |
| 20260508054843 | 55 | 0 | 0.0 | 0.0 | 0.00 | 0.00 | 0.00 | 91 | 1016.5 |
| 20260508054434 | 55 | 0 | 0.0 | 0.0 | 0.00 | 0.00 | 0.00 | 91 | 1016.5 |
| 20260508053840 | 55 | 0 | 0.0 | 0.0 | 0.00 | 0.00 | 0.00 | 90 | 1016.5 |
| 20260508053337 | 55 | 0 | 0.0 | 0.0 | 0.00 | 0.00 | 0.00 | 90 | 1016.6 |
| 20260508052837 | 55 | 0 | 0.0 | 0.0 | 0.00 | 0.00 | 0.00 | 90 | 1016.4 |
| 20260508052337 | 55 | 0 | 0.0 | 0.0 | 0.00 | 0.00 | 0.00 | 90 | 1016.6 |
| 20260508051843 | 55 | 0 | 0.0 | 0.0 | 0.00 | 0.00 | 0.00 | 90 | 1016.5 |
| 20260508051341 | 55 | 0 | 0.0 | 0.0 | 0.00 | 0.00 | 0.00 | 90 | 1016.7 |
| 20260508050840 | 55 | 0 | 0.0 | 0.0 | 0.00 | 0.00 | 0.00 | 90 | 1016.5 |
| 20260508050336 | 55 | 0 | 0.0 | 0.0 | 0.00 | 0.00 | 0.00 | 90 | 1016.7 |
| 20260508045934 | 56 | 0 | 0.0 | 0.0 | 0.00 | 0.00 | 0.00 | 89 | 1016.7 |
| 20260508045336 | 56 | 0 | 0.0 | 0.0 | 0.00 | 0.00 | 0.00 | 89 | 1016.7 |
| 20260508044841 | 56 | 0 | 0.0 | 0.0 | 0.00 | 0.00 | 0.00 | 89 | 1016.5 |
| 20260508044338 | 56 | 0 | 0.0 | 0.0 | 0.00 | 0.00 | 0.00 | 89 | 1016.5 |
| 20260508043834 | 56 | 0 | 0.0 | 0.0 | 0.00 | 0.00 | 0.00 | 89 | 1016.3 |
| 20260508043334 | 56 | 0 | 0.0 | 0.0 | 0.00 | 0.00 | 0.00 | 88 | 1016.3 |
| 20260508042837 | 56 | 0 | 0.0 | 0.0 | 0.00 | 0.00 | 0.00 | 88 | 1016.4 |
| 20260508042338 | 57 | 0 | 0.0 | 0.0 | 0.00 | 0.00 | 0.00 | 88 | 1016.3 |
| 20260508041836 | 57 | 0 | 0.0 | 0.0 | 0.00 | 0.00 | 0.00 | 88 | 1016.4 |
| 20260508041339 | 57 | 0 | 0.0 | 0.0 | 0.00 | 0.00 | 0.00 | 88 | 1016.4 |
| 20260508040843 | 57 | 0 | 0.0 | 0.0 | 0.00 | 0.00 | 0.00 | 88 | 1016.2 |
| 20260508040431 | 57 | 0 | 0.0 | 0.0 | 0.00 | 0.00 | 0.00 | 88 | 1016.2 |
| 20260508035837 | 57 | 0 | 0.0 | 0.0 | 0.00 | 0.00 | 1.09 | 87 | 1016.3 |
| 20260508035342 | 57 | 0 | 0.0 | 0.0 | 0.00 | 0.00 | 1.09 | 87 | 1016.3 |
| 20260508034838 | 57 | 0 | 0.0 | 0.0 | 0.00 | 0.00 | 1.09 | 87 | 1016.4 |
| 20260508034338 | 57 | 0 | 0.0 | 0.0 | 0.00 | 0.00 | 1.09 | 86 | 1016.3 |
| 20260508033839 | 57 | 0 | 0.0 | 0.0 | 0.00 | 0.00 | 1.09 | 86 | 1016.3 |
| 20260508033336 | 57 | 0 | 0.0 | 0.0 | 0.00 | 0.00 | 1.09 | 86 | 1016.3 |
| 20260508032835 | 57 | 0 | 0.0 | 0.0 | 0.00 | 0.00 | 1.09 | 87 | 1016.1 |
| 20260508032337 | 58 | 0 | 0.0 | 0.0 | 0.00 | 0.00 | 1.09 | 86 | 1016.3 |
| 20260508031837 | 58 | 0 | 0.0 | 0.0 | 0.00 | 0.00 | 1.09 | 86 | 1016.3 |
| 20260508031338 | 58 | 0 | 0.0 | 0.0 | 0.00 | 0.00 | 1.09 | 86 | 1016.3 |
| 20260508030834 | 58 | 0 | 0.0 | 0.0 | 0.00 | 0.00 | 1.09 | 85 | 1016.2 |
| 20260508030341 | 58 | 0 | 0.0 | 0.0 | 0.00 | 0.00 | 1.09 | 85 | 1016.2 |
| 20260508025837 | 58 | 0 | 0.0 | 0.0 | 0.00 | 0.00 | 1.09 | 84 | 1016.0 |
| 20260508025342 | 59 | 0 | 0.0 | 0.0 | 0.00 | 0.00 | 1.09 | 85 | 1016.3 |
| 20260508024836 | 59 | 0 | 0.0 | 0.0 | 0.00 | 0.00 | 1.09 | 84 | 1016.1 |
| 20260508024340 | 59 | 0 | 0.0 | 0.0 | 0.00 | 0.00 | 1.09 | 84 | 1016.0 |
| 20260508023935 | 59 | 0 | 0.0 | 1.0 | 0.00 | 0.00 | 1.09 | 84 | 1016.1 |
| 20260508023440 | 59 | 0 | 0.0 | 1.0 | 0.00 | 0.00 | 1.09 | 84 | 1016.1 |
| 20260508022939 | 59 | 0 | 0.0 | 1.0 | 0.00 | 0.00 | 1.09 | 84 | 1016.0 |
| 20260508022441 | 59 | 0 | 0.0 | 0.0 | 0.00 | 0.00 | 1.09 | 84 | 1016.0 |
| 20260508021941 | 59 | 0 | 0.0 | 0.0 | 0.00 | 0.00 | 1.09 | 84 | 1016.1 |
| 20260508021440 | 59 | 0 | 0.0 | 0.0 | 0.00 | 0.00 | 1.09 | 84 | 1016.0 |
| 20260508020944 | 59 | 0 | 0.0 | 0.0 | 0.00 | 0.00 | 1.09 | 84 | 1015.8 |
| 20260508020435 | 59 | 0 | 0.0 | 0.0 | 0.00 | 0.00 | 1.09 | 84 | 1015.8 |
| 20260508015939 | 60 | 0 | 0.0 | 0.0 | 0.00 | 0.00 | 1.09 | 83 | 1015.8 |
| 20260508015438 | 60 | 0 | 0.0 | 0.0 | 0.00 | 0.00 | 1.09 | 83 | 1015.8 |
| 20260508014939 | 60 | 0 | 0.0 | 0.0 | 0.00 | 0.00 | 1.09 | 82 | 1015.7 |
| 20260508014439 | 60 | 0 | 0.0 | 1.0 | 0.00 | 0.00 | 1.09 | 82 | 1015.7 |
| 20260508013941 | 61 | 0 | 0.0 | 1.0 | 0.00 | 0.00 | 1.09 | 82 | 1015.6 |
| 20260508013441 | 61 | 0 | 0.0 | 1.0 | 0.00 | 0.00 | 1.09 | 82 | 1015.6 |
| 20260508012942 | 61 | 0 | 0.0 | 1.0 | 0.00 | 0.00 | 1.09 | 81 | 1015.6 |
| 20260508012437 | 61 | 0 | 0.0 | 0.0 | 0.00 | 0.00 | 1.09 | 82 | 1015.6 |
| 20260508011939 | 61 | 0 | 0.0 | 0.0 | 0.00 | 0.00 | 1.09 | 81 | 1015.5 |
| 20260508011435 | 61 | 0 | 0.0 | 0.0 | 0.00 | 0.00 | 1.09 | 81 | 1015.6 |
| 20260508010938 | 61 | 0 | 0.0 | 0.0 | 0.00 | 0.00 | 1.09 | 80 | 1015.5 |
| 20260508010441 | 62 | 0 | 0.0 | 0.0 | 0.00 | 0.00 | 1.09 | 80 | 1015.5 |
| 20260508005939 | 62 | 0 | 0.0 | 0.0 | 0.00 | 0.00 | 1.09 | 80 | 1015.5 |
| 20260508005442 | 62 | 0 | 0.0 | 0.0 | 0.00 | 0.00 | 1.09 | 79 | 1015.3 |
| 20260508004941 | 62 | 0 | 0.0 | 1.0 | 0.00 | 0.00 | 1.09 | 79 | 1015.3 |
| 20260508004437 | 62 | 0 | 0.0 | 1.0 | 0.00 | 0.00 | 1.09 | 79 | 1015.1 |
| 20260508003940 | 62 | 0 | 0.0 | 2.0 | 0.00 | 0.00 | 1.09 | 78 | 1015.2 |
| 20260508003437 | 63 | 0 | 0.0 | 2.0 | 0.00 | 0.00 | 1.09 | 78 | 1015.0 |
| 20260508002943 | 63 | 0 | 0.0 | 0.0 | 0.00 | 0.00 | 1.09 | 78 | 1015.2 |
| 20260508002441 | 63 | 0 | 0.0 | 0.0 | 0.00 | 0.00 | 1.09 | 78 | 1015.0 |
| 20260508001939 | 63 | 0 | 0.0 | 0.0 | 0.00 | 0.00 | 1.09 | 77 | 1015.1 |
| 20260508001442 | 63 | 0 | 0.0 | 1.0 | 0.00 | 0.00 | 1.09 | 77 | 1015.0 |
| 20260508000941 | 64 | 0 | 0.0 | 1.0 | 0.00 | 0.00 | 1.09 | 77 | 1014.8 |
| 20260508000437 | 64 | 0 | 0.0 | 1.0 | 0.00 | 0.00 | 1.09 | 76 | 1014.9 |
| 20260507235937 | 64 | 0 | 0.0 | 1.0 | 0.00 | 0.00 | 1.09 | 76 | 1014.8 |
| 20260507235439 | 64 | 0 | 0.0 | 1.0 | 0.00 | 0.00 | 1.09 | 76 | 1014.6 |
| 20260507234936 | 65 | 0 | 0.0 | 6.0 | 0.00 | 0.00 | 1.09 | 75 | 1014.9 |
| 20260507234436 | 65 | 0 | 0.0 | 6.0 | 0.00 | 0.00 | 1.09 | 75 | 1014.7 |
| 20260507233939 | 65 | 198 | 1.0 | 6.0 | 0.00 | 0.00 | 1.09 | 74 | 1014.6 |
| 20260507233441 | 66 | 0 | 0.0 | 3.0 | 0.00 | 0.00 | 1.09 | 74 | 1014.6 |
| 20260507232937 | 66 | 0 | 0.0 | 6.0 | 0.00 | 0.00 | 1.09 | 74 | 1014.4 |
| 20260507232442 | 66 | 165 | 1.0 | 6.0 | 0.00 | 0.00 | 1.09 | 75 | 1014.5 |
| 20260507231936 | 66 | 0 | 0.0 | 4.0 | 0.00 | 0.00 | 1.09 | 74 | 1014.4 |
| 20260507231440 | 66 | 146 | 2.0 | 5.0 | 0.00 | 0.00 | 1.09 | 74 | 1014.4 |
| 20260507230937 | 66 | 146 | 2.0 | 5.0 | 0.00 | 0.00 | 1.09 | 74 | 1014.3 |
| 20260507230436 | 66 | 0 | 0.0 | 5.0 | 0.00 | 0.00 | 1.09 | 73 | 1014.4 |
| 20260507225941 | 66 | 150 | 1.0 | 3.0 | 0.00 | 0.00 | 1.09 | 73 | 1014.2 |
| 20260507225441 | 67 | 167 | 0.0 | 3.0 | 0.00 | 0.00 | 1.09 | 73 | 1014.3 |
| 20260507224941 | 67 | 167 | 2.0 | 3.0 | 0.00 | 0.00 | 1.09 | 73 | 1014.2 |
| 20260507224439 | 67 | 115 | 3.0 | 3.0 | 0.00 | 0.00 | 1.09 | 73 | 1014.1 |
| 20260507223937 | 67 | 175 | 2.0 | 4.0 | 0.00 | 0.00 | 1.09 | 74 | 1014.1 |
| 20260507223443 | 67 | 163 | 0.0 | 5.0 | 0.00 | 0.00 | 1.09 | 73 | 1014.1 |
| 20260507222936 | 67 | 172 | 1.0 | 5.0 | 0.00 | 0.00 | 1.09 | 74 | 1014.1 |
| 20260507222440 | 67 | 174 | 2.0 | 2.0 | 0.00 | 0.00 | 1.09 | 75 | 1013.9 |
| 20260507221941 | 68 | 174 | 1.0 | 3.0 | 0.00 | 0.00 | 1.09 | 74 | 1014.0 |
| 20260507221439 | 68 | 183 | 0.0 | 4.0 | 0.00 | 0.00 | 1.09 | 74 | 1014.0 |
| 20260507220939 | 68 | 0 | 0.0 | 4.0 | 0.00 | 0.00 | 1.09 | 75 | 1013.9 |
| 20260507220435 | 68 | 160 | 1.0 | 4.0 | 0.00 | 0.00 | 1.09 | 74 | 1013.7 |
| 20260507215942 | 68 | 196 | 1.0 | 4.0 | 0.00 | 0.00 | 1.09 | 74 | 1013.7 |
| 20260507215440 | 68 | 0 | 0.0 | 4.0 | 0.00 | 0.00 | 1.09 | 74 | 1013.6 |
| 20260507214942 | 68 | 188 | 2.0 | 4.0 | 0.00 | 0.00 | 1.09 | 75 | 1013.6 |
| 20260507214443 | 68 | 185 | 1.0 | 5.0 | 0.00 | 0.00 | 1.09 | 74 | 1013.5 |
| 20260507213938 | 68 | 190 | 0.0 | 5.0 | 0.00 | 0.00 | 1.09 | 74 | 1014.0 |
| 20260507213440 | 68 | 154 | 0.0 | 3.0 | 0.00 | 0.00 | 1.09 | 74 | 1013.7 |
| 20260507212941 | 68 | 155 | 2.0 | 3.0 | 0.00 | 0.00 | 1.09 | 75 | 1013.6 |
| 20260507212436 | 68 | 172 | 1.0 | 3.0 | 0.00 | 0.00 | 1.09 | 75 | 1013.5 |
| 20260507211942 | 68 | 148 | 2.0 | 3.0 | 0.00 | 0.00 | 1.09 | 74 | 1013.5 |
| 20260507211439 | 67 | 171 | 1.0 | 4.0 | 0.00 | 0.00 | 1.09 | 75 | 1013.5 |
| 20260507210941 | 68 | 148 | 2.0 | 4.0 | 0.00 | 0.00 | 1.09 | 77 | 1013.5 |
| 20260507210439 | 68 | 169 | 2.0 | 3.0 | 0.00 | 0.00 | 1.09 | 75 | 1013.4 |
| 20260507205939 | 68 | 192 | 0.0 | 3.0 | 0.00 | 0.00 | 1.09 | 75 | 1013.5 |
| 20260507205439 | 68 | 156 | 2.0 | 4.0 | 0.00 | 0.00 | 1.09 | 75 | 1013.6 |
| 20260507204941 | 68 | 188 | 1.0 | 4.0 | 0.00 | 0.00 | 1.09 | 76 | 1013.4 |
| 20260507204438 | 68 | 174 | 1.0 | 4.0 | 0.00 | 0.00 | 1.09 | 76 | 1013.5 |
| 20260507203942 | 68 | 158 | 2.0 | 4.0 | 0.00 | 0.00 | 1.09 | 75 | 1013.4 |
| 20260507203439 | 68 | 182 | 1.0 | 4.0 | 0.00 | 0.00 | 1.09 | 76 | 1013.5 |
| 20260507202939 | 68 | 155 | 1.0 | 4.0 | 0.00 | 0.00 | 1.09 | 76 | 1013.3 |
| 20260507202441 | 69 | 179 | 2.0 | 4.0 | 0.00 | 0.00 | 1.09 | 76 | 1013.4 |
| 20260507201939 | 69 | 150 | 1.0 | 4.0 | 0.00 | 0.00 | 1.09 | 75 | 1013.4 |
| 20260507201441 | 69 | 155 | 1.0 | 4.0 | 0.00 | 0.00 | 1.09 | 75 | 1013.4 |
| 20260507200940 | 69 | 182 | 1.0 | 4.0 | 0.00 | 0.00 | 1.09 | 75 | 1013.5 |
| 20260507200441 | 69 | 143 | 3.0 | 3.0 | 0.00 | 0.00 | 1.09 | 74 | 1013.3 |
| 20260507195937 | 70 | 158 | 2.0 | 4.0 | 0.00 | 0.00 | 1.09 | 74 | 1013.3 |
| 20260507195443 | 70 | 174 | 1.0 | 4.0 | 0.00 | 0.00 | 1.09 | 75 | 1013.3 |
| 20260507194939 | 70 | 158 | 1.0 | 5.0 | 0.00 | 0.00 | 1.09 | 76 | 1013.3 |
| 20260507194443 | 70 | 169 | 1.0 | 5.0 | 0.00 | 0.00 | 1.09 | 75 | 1013.5 |
| 20260507193941 | 70 | 99 | 5.0 | 3.0 | 0.00 | 0.00 | 1.09 | 76 | 1013.4 |
| 20260507193440 | 70 | 137 | 2.0 | 10.0 | 0.00 | 0.00 | 1.09 | 77 | 1013.3 |
| 20260507192944 | 70 | 158 | 2.0 | 10.0 | 0.00 | 0.00 | 1.09 | 76 | 1013.3 |
| 20260507192440 | 70 | 351 | 2.0 | 10.0 | 0.00 | 0.00 | 1.09 | 77 | 1013.2 |
| 20260507191938 | 70 | 174 | 1.0 | 3.0 | 0.00 | 0.00 | 1.09 | 77 | 1013.2 |
| 20260507191438 | 70 | 198 | 1.0 | 3.0 | 0.00 | 0.00 | 1.09 | 78 | 1013.4 |
| 20260507190941 | 70 | 160 | 0.0 | 4.0 | 0.00 | 0.00 | 1.09 | 78 | 1013.4 |
| 20260507190442 | 70 | 167 | 1.0 | 5.0 | 0.00 | 0.00 | 1.09 | 80 | 1013.6 |
| 20260507185939 | 69 | 0 | 0.0 | 5.0 | 0.00 | 0.00 | 1.09 | 80 | 1013.7 |
| 20260507185439 | 69 | 183 | 1.0 | 6.0 | 0.00 | 0.00 | 1.09 | 80 | 1013.6 |
| 20260507184939 | 69 | 162 | 1.0 | 6.0 | 0.00 | 0.00 | 1.09 | 80 | 1013.8 |
| 20260507184440 | 69 | 36 | 5.0 | 5.0 | 0.00 | 0.00 | 1.09 | 79 | 1013.7 |
| 20260507183942 | 70 | 0 | 0.0 | 3.0 | 0.00 | 0.00 | 1.09 | 80 | 1013.7 |
| 20260507183440 | 70 | 0 | 0.0 | 4.0 | 0.00 | 0.00 | 1.09 | 81 | 1013.6 |
| 20260507182944 | 70 | 155 | 1.0 | 4.0 | 0.00 | 0.00 | 1.09 | 80 | 1013.5 |
| 20260507182437 | 70 | 141 | 2.0 | 4.0 | 0.00 | 0.00 | 1.09 | 81 | 1013.6 |
| 20260507181942 | 70 | 189 | 1.0 | 6.0 | 0.00 | 0.00 | 1.09 | 82 | 1013.6 |
| 20260507181441 | 69 | 167 | 1.0 | 6.0 | 0.00 | 0.00 | 1.09 | 82 | 1013.5 |
| 20260507180938 | 69 | 139 | 3.0 | 3.0 | 0.00 | 0.00 | 1.09 | 82 | 1013.6 |
| 20260507180439 | 69 | 0 | 0.0 | 3.0 | 0.00 | 0.00 | 1.09 | 83 | 1013.5 |
| 20260507175939 | 69 | 137 | 3.0 | 4.0 | 0.00 | 0.00 | 1.09 | 84 | 1013.6 |
| 20260507175437 | 69 | 163 | 1.0 | 4.0 | 0.00 | 0.00 | 1.09 | 83 | 1013.5 |
| 20260507174944 | 69 | 130 | 1.0 | 4.0 | 0.00 | 0.00 | 1.09 | 84 | 1013.6 |
| 20260507174445 | 69 | 0 | 0.0 | 3.0 | 0.00 | 0.00 | 1.09 | 84 | 1013.5 |
| 20260507173938 | 69 | 0 | 0.0 | 4.0 | 0.00 | 0.00 | 1.09 | 83 | 1013.6 |
| 20260507173440 | 69 | 168 | 2.0 | 4.0 | 0.00 | 0.00 | 1.09 | 83 | 1013.6 |
| 20260507172943 | 70 | 184 | 1.0 | 3.0 | 0.00 | 0.00 | 1.09 | 83 | 1013.6 |
| 20260507172438 | 70 | 0 | 0.0 | 3.0 | 0.00 | 0.00 | 1.09 | 84 | 1013.5 |
| 20260507171941 | 70 | 150 | 1.0 | 4.0 | 0.00 | 0.00 | 1.09 | 85 | 1013.4 |
| 20260507171441 | 69 | 115 | 2.0 | 4.0 | 0.00 | 0.00 | 1.09 | 84 | 1013.3 |
| 20260507170937 | 69 | 179 | 1.0 | 4.0 | 0.00 | 0.00 | 1.09 | 86 | 1013.3 |
| 20260507170442 | 69 | 200 | 1.0 | 4.0 | 0.00 | 0.00 | 1.09 | 87 | 1013.3 |
| 20260507165945 | 69 | 143 | 1.0 | 3.0 | 0.00 | 0.00 | 1.09 | 88 | 1013.3 |